,,Stat5,,Stat1,,Stat2,,Stat3,,Stat4,,Wind1,,Wind1,
time,status,PA1M_AVG,status,PR1M_SUM,status,RH1M_AVG,status,SR1M_AVG,status,TA1M_AVG,status,W1dAve1m,status,W1sAve1m,
2001-06-05, 00:00:00,VALID,917.382,VALID,0,VALID,95.8917,VALID,0,VALID,20.3907,VALID,95,VALID,0.250977,
2001-06-05, 00:01:00,VALID,917.388,VALID,0,VALID,95.9756,VALID,0,VALID,20.3716,VALID,103,VALID,0.609976,
2001-06-05, 00:02:00,VALID,917.387,VALID,0,VALID,96.1053,VALID,0,VALID,20.3197,VALID,103,VALID,0.611133,
2001-06-05, 00:03:00,VALID,917.383,VALID,0,VALID,96.2948,VALID,0,VALID,20.3038,VALID,103,VALID,0.477564,
2001-06-05, 00:04:00,VALID,917.404,VALID,0,VALID,96.4779,VALID,0,VALID,20.2742,VALID,71,VALID,0.475123,
2001-06-05, 00:05:00,VALID,917.386,VALID,0,VALID,96.6369,VALID,-0.0169808,VALID,20.2871,VALID,65,VALID,0.475329,
2001-06-05, 00:06:00,VALID,917.378,VALID,0,VALID,96.6699,VALID,0,VALID,20.2779,VALID,58,VALID,0.240986,
2001-06-05, 00:07:00,VALID,917.375,VALID,0,VALID,96.6966,VALID,0,VALID,20.2913,VALID,58,VALID,0,
2001-06-05, 00:08:00,VALID,917.362,VALID,0,VALID,96.7284,VALID,0,VALID,20.2841,VALID,58,VALID,0,
2001-06-05, 00:09:00,VALID,917.356,VALID,0,VALID,96.7538,VALID,-0.0339617,VALID,20.2911,VALID,58,VALID,0,
2001-06-05, 00:10:00,VALID,917.328,VALID,0,VALID,96.8111,VALID,0,VALID,20.3105,VALID,58,VALID,0,
2001-06-05, 00:11:00,VALID,917.316,VALID,0,VALID,96.9001,VALID,0,VALID,20.3336,VALID,86,VALID,0.0173142,
2001-06-05, 00:12:00,VALID,917.283,VALID,0,VALID,96.9827,VALID,0,VALID,20.3522,VALID,165,VALID,0.272821,
2001-06-05, 00:13:00,VALID,917.257,VALID,0,VALID,96.956,VALID,0,VALID,20.3619,VALID,161,VALID,0.105058,
2001-06-05, 00:14:00,VALID,917.256,VALID,0,VALID,96.9649,VALID,-0.0169808,VALID,20.3619,VALID,162,VALID,0,
2001-06-05, 00:15:00,VALID,917.252,VALID,0,VALID,96.9675,VALID,0,VALID,20.3547,VALID,231,VALID,0.559295,
2001-06-05, 00:16:00,VALID,917.266,VALID,0,VALID,96.9052,VALID,0,VALID,20.3264,VALID,224,VALID,0.514186,
2001-06-05, 00:17:00,VALID,917.277,VALID,0,VALID,97.0044,VALID,0,VALID,20.3062,VALID,234,VALID,0.282517,
2001-06-05, 00:18:00,VALID,917.284,VALID,0,VALID,97.1201,VALID,0.0169808,VALID,20.3027,VALID,233,VALID,0,
2001-06-05, 00:19:00,VALID,917.279,VALID,0,VALID,97.1557,VALID,0.0509425,VALID,20.3164,VALID,218,VALID,0.0616776,
2001-06-05, 00:20:00,VALID,917.272,VALID,0,VALID,97.1582,VALID,0.0339617,VALID,20.3127,VALID,214,VALID,0,
2001-06-05, 00:21:00,VALID,917.257,VALID,0,VALID,97.1862,VALID,-0.0169808,VALID,20.3253,VALID,210,VALID,0,
2001-06-05, 00:22:00,VALID,917.235,VALID,0,VALID,97.1964,VALID,0,VALID,20.342,VALID,210,VALID,0,
2001-06-05, 00:23:00,VALID,917.229,VALID,0,VALID,97.1048,VALID,0.0169808,VALID,20.342,VALID,216,VALID,0,
2001-06-05, 00:24:00,VALID,917.222,VALID,0,VALID,97.0018,VALID,0,VALID,20.3299,VALID,228,VALID,0,
2001-06-05, 00:25:00,VALID,917.195,VALID,0,VALID,97.0476,VALID,0.0169808,VALID,20.3132,VALID,230,VALID,0,
2001-06-05, 00:26:00,VALID,917.187,VALID,0,VALID,97.0756,VALID,0,VALID,20.3102,VALID,194,VALID,0,
2001-06-05, 00:27:00,VALID,917.184,VALID,0,VALID,97.1163,VALID,-0.0169808,VALID,20.3169,VALID,130,VALID,0,
2001-06-05, 00:28:00,VALID,917.175,VALID,0,VALID,97.1353,VALID,0,VALID,20.3137,VALID,128,VALID,0,
2001-06-05, 00:29:00,VALID,917.186,VALID,0,VALID,97.0921,VALID,0,VALID,20.2968,VALID,118,VALID,0,
2001-06-05, 00:30:00,VALID,917.191,VALID,0,VALID,97.2015,VALID,0,VALID,20.2938,VALID,68,VALID,0,
2001-06-05, 00:31:00,VALID,917.183,VALID,0,VALID,97.2701,VALID,0,VALID,20.3008,VALID,55,VALID,0,
2001-06-05, 00:32:00,VALID,917.178,VALID,0,VALID,97.2803,VALID,0,VALID,20.3075,VALID,59,VALID,0,
2001-06-05, 00:33:00,VALID,917.157,VALID,0,VALID,97.2587,VALID,0.0339617,VALID,20.2881,VALID,46,VALID,0,
2001-06-05, 00:34:00,VALID,917.14,VALID,0,VALID,97.2447,VALID,0,VALID,20.2814,VALID,64,VALID,0,
2001-06-05, 00:35:00,VALID,917.116,VALID,0,VALID,97.2053,VALID,0,VALID,20.2685,VALID,71,VALID,0,
2001-06-05, 00:36:00,VALID,917.087,VALID,0,VALID,97.1849,VALID,0,VALID,20.259,VALID,66,VALID,0,
2001-06-05, 00:37:00,VALID,917.068,VALID,0,VALID,97.1926,VALID,0.0169808,VALID,20.2424,VALID,66,VALID,0,
2001-06-05, 00:38:00,VALID,917.068,VALID,0,VALID,97.1926,VALID,0,VALID,20.2096,VALID,84,VALID,0,
2001-06-05, 00:39:00,VALID,917.052,VALID,0,VALID,97.1735,VALID,-0.0679233,VALID,20.1872,VALID,85,VALID,0,
2001-06-05, 00:40:00,VALID,917.059,VALID,0,VALID,97.204,VALID,-0.0169808,VALID,20.1678,VALID,98,VALID,0,
2001-06-05, 00:41:00,VALID,917.065,VALID,0,VALID,97.2752,VALID,0,VALID,20.142,VALID,110,VALID,0,
2001-06-05, 00:42:00,VALID,917.057,VALID,0,VALID,97.3579,VALID,0,VALID,20.1231,VALID,125,VALID,0,
2001-06-05, 00:43:00,VALID,917.055,VALID,0,VALID,97.3808,VALID,0,VALID,20.1132,VALID,117,VALID,0,
2001-06-05, 00:44:00,VALID,917.053,VALID,0,VALID,97.3668,VALID,-0.0169808,VALID,20.094,VALID,110,VALID,0,
2001-06-05, 00:45:00,VALID,917.037,VALID,0,VALID,97.3464,VALID,-0.0169808,VALID,20.0781,VALID,67,VALID,0,
2001-06-05, 00:46:00,VALID,917.032,VALID,0,VALID,97.2167,VALID,-0.0169808,VALID,20.0488,VALID,53,VALID,0,
2001-06-05, 00:47:00,VALID,917.022,VALID,0,VALID,97.1633,VALID,0,VALID,20.0103,VALID,47,VALID,0,
2001-06-05, 00:48:00,VALID,917.01,VALID,0,VALID,97.2218,VALID,-0.0169808,VALID,19.9614,VALID,46,VALID,0,
2001-06-05, 00:49:00,VALID,916.994,VALID,0,VALID,97.3617,VALID,-0.0169808,VALID,19.9422,VALID,50,VALID,0,
2001-06-05, 00:50:00,VALID,916.991,VALID,0,VALID,97.4227,VALID,-0.0169808,VALID,19.9263,VALID,61,VALID,0,
2001-06-05, 00:51:00,VALID,916.978,VALID,0,VALID,97.5295,VALID,0,VALID,19.9097,VALID,78,VALID,0,
2001-06-05, 00:52:00,VALID,916.975,VALID,0,VALID,97.6122,VALID,-0.0169808,VALID,19.891,VALID,86,VALID,0,
2001-06-05, 00:53:00,VALID,916.962,VALID,0,VALID,97.7343,VALID,-0.101885,VALID,19.8893,VALID,98,VALID,0,
2001-06-05, 00:54:00,VALID,916.957,VALID,0,VALID,97.7482,VALID,-0.101885,VALID,19.857,VALID,108,VALID,0,
2001-06-05, 00:55:00,VALID,916.951,VALID,0,VALID,97.8245,VALID,-0.0679233,VALID,19.8207,VALID,117,VALID,0,
2001-06-05, 00:56:00,VALID,916.94,VALID,0,VALID,98.0331,VALID,0,VALID,19.8195,VALID,119,VALID,0,
2001-06-05, 00:57:00,VALID,916.941,VALID,0,VALID,98.1526,VALID,0,VALID,19.8197,VALID,113,VALID,0,
2001-06-05, 00:58:00,VALID,916.947,VALID,0,VALID,98.2607,VALID,0,VALID,19.7996,VALID,100,VALID,0,
2001-06-05, 00:59:00,VALID,916.948,VALID,0,VALID,98.2887,VALID,0,VALID,19.7902,VALID,90,VALID,0,
2001-06-05, 01:00:00,VALID,916.956,VALID,0,VALID,98.281,VALID,0,VALID,19.775,VALID,93,VALID,0,
2001-06-05, 01:01:00,VALID,916.945,VALID,0,VALID,98.3319,VALID,0,VALID,19.7591,VALID,85,VALID,0,
2001-06-05, 01:02:00,VALID,916.935,VALID,0,VALID,98.3141,VALID,-0.0169808,VALID,19.733,VALID,76,VALID,0.367599,
2001-06-05, 01:03:00,VALID,916.917,VALID,0,VALID,98.3434,VALID,0,VALID,19.7072,VALID,88,VALID,0.474777,
2001-06-05, 01:04:00,VALID,916.903,VALID,0,VALID,98.3662,VALID,-0.0169808,VALID,19.701,VALID,102,VALID,0.4373,
2001-06-05, 01:05:00,VALID,916.883,VALID,0,VALID,98.4514,VALID,0,VALID,19.7074,VALID,100,VALID,0.615294,
2001-06-05, 01:06:00,VALID,916.871,VALID,0,VALID,98.4591,VALID,0,VALID,19.6868,VALID,115,VALID,0.579644,
2001-06-05, 01:07:00,VALID,916.857,VALID,0,VALID,98.4743,VALID,0,VALID,19.6975,VALID,144,VALID,0.552632,
2001-06-05, 01:08:00,VALID,916.838,VALID,0,VALID,98.5557,VALID,0,VALID,19.6841,VALID,133,VALID,0.760016,
2001-06-05, 01:09:00,VALID,916.811,VALID,0,VALID,98.618,VALID,0,VALID,19.7037,VALID,128,VALID,0.636719,
2001-06-05, 01:10:00,VALID,916.807,VALID,0,VALID,98.6333,VALID,0,VALID,19.7035,VALID,128,VALID,0.723437,
2001-06-05, 01:11:00,VALID,916.794,VALID,0,VALID,98.6346,VALID,0,VALID,19.7102,VALID,132,VALID,0.53864,
2001-06-05, 01:12:00,VALID,916.765,VALID,0,VALID,98.6447,VALID,-0.0339617,VALID,19.7037,VALID,124,VALID,0.675551,
2001-06-05, 01:13:00,VALID,916.765,VALID,0,VALID,98.6384,VALID,-0.0339617,VALID,19.6943,VALID,121,VALID,0.090625,
2001-06-05, 01:14:00,VALID,916.763,VALID,0,VALID,98.6371,VALID,0,VALID,19.6945,VALID,121,VALID,0,
2001-06-05, 01:15:00,VALID,916.738,VALID,0,VALID,98.6473,VALID,-0.0169808,VALID,19.6779,VALID,145,VALID,0.393159,
2001-06-05, 01:16:00,VALID,916.732,VALID,0,VALID,98.674,VALID,-0.0339617,VALID,19.6813,VALID,129,VALID,0.419613,
2001-06-05, 01:17:00,VALID,916.723,VALID,0,VALID,98.6829,VALID,-0.0509425,VALID,19.6878,VALID,128,VALID,0.355134,
2001-06-05, 01:18:00,VALID,916.693,VALID,0,VALID,98.6371,VALID,-0.0169808,VALID,19.704,VALID,129,VALID,0.0514824,
2001-06-05, 01:19:00,VALID,916.685,VALID,0,VALID,98.5939,VALID,0,VALID,19.6945,VALID,128,VALID,0,
2001-06-05, 01:20:00,VALID,916.686,VALID,0,VALID,98.5544,VALID,-0.0509425,VALID,19.6818,VALID,111,VALID,0,
2001-06-05, 01:21:00,VALID,916.679,VALID,0,VALID,98.5201,VALID,-0.0169808,VALID,19.6582,VALID,92,VALID,0,
2001-06-05, 01:22:00,VALID,916.667,VALID,0,VALID,98.5061,VALID,-0.0339617,VALID,19.6717,VALID,97,VALID,0,
2001-06-05, 01:23:00,VALID,916.664,VALID,0,VALID,98.3802,VALID,0,VALID,19.6488,VALID,74,VALID,0,
2001-06-05, 01:24:00,VALID,916.653,VALID,0,VALID,98.3383,VALID,0,VALID,19.6329,VALID,93,VALID,0,
2001-06-05, 01:25:00,VALID,916.63,VALID,0,VALID,98.2327,VALID,-0.0849042,VALID,19.62,VALID,93,VALID,0,
2001-06-05, 01:26:00,VALID,916.588,VALID,0,VALID,98.1348,VALID,0,VALID,19.5718,VALID,99,VALID,0.051011,
2001-06-05, 01:27:00,VALID,916.571,VALID,0,VALID,98.1704,VALID,0,VALID,19.582,VALID,116,VALID,0.479018,
2001-06-05, 01:28:00,VALID,916.534,VALID,0,VALID,98.0992,VALID,-0.0169808,VALID,19.5651,VALID,122,VALID,0.523237,
2001-06-05, 01:29:00,VALID,916.498,VALID,0,VALID,98.0712,VALID,0,VALID,19.5358,VALID,126,VALID,0.425676,
2001-06-05, 01:30:00,VALID,916.456,VALID,0,VALID,98.1628,VALID,-0.0169808,VALID,19.5429,VALID,125,VALID,0.963199,
2001-06-05, 01:31:00,VALID,916.423,VALID,0,VALID,98.2022,VALID,0,VALID,19.5591,VALID,124,VALID,0.792634,
2001-06-05, 01:32:00,VALID,916.378,VALID,0,VALID,98.1679,VALID,0,VALID,19.542,VALID,128,VALID,0.635417,
2001-06-05, 01:33:00,VALID,916.363,VALID,0,VALID,98.1742,VALID,-0.0339617,VALID,19.5362,VALID,125,VALID,0.65625,
2001-06-05, 01:34:00,VALID,916.328,VALID,0,VALID,98.248,VALID,0,VALID,19.5358,VALID,131,VALID,0.745009,
2001-06-05, 01:35:00,VALID,916.294,VALID,0,VALID,98.4044,VALID,0,VALID,19.5748,VALID,136,VALID,0.884457,
2001-06-05, 01:36:00,VALID,916.278,VALID,0,VALID,98.4375,VALID,0,VALID,19.5912,VALID,113,VALID,0.8127,
2001-06-05, 01:37:00,VALID,916.261,VALID,0,VALID,98.4667,VALID,-0.0339617,VALID,19.5979,VALID,109,VALID,1.00391,
2001-06-05, 01:38:00,VALID,916.238,VALID,0,VALID,98.5112,VALID,-0.0339617,VALID,19.6108,VALID,111,VALID,0.983482,
2001-06-05, 01:39:00,VALID,916.225,VALID,0,VALID,98.487,VALID,-0.0169808,VALID,19.5949,VALID,104,VALID,0.863598,
2001-06-05, 01:40:00,VALID,916.213,VALID,0,VALID,98.5303,VALID,0,VALID,19.5914,VALID,103,VALID,0.920496,
2001-06-05, 01:41:00,VALID,916.206,VALID,0,VALID,98.4972,VALID,0.0849042,VALID,19.577,VALID,106,VALID,0.651116,
2001-06-05, 01:42:00,VALID,916.198,VALID,0,VALID,98.5163,VALID,0.0849042,VALID,19.5643,VALID,118,VALID,0.760617,
2001-06-05, 01:43:00,VALID,916.169,VALID,0,VALID,98.5252,VALID,0.101885,VALID,19.5442,VALID,124,VALID,0.684122,
2001-06-05, 01:44:00,VALID,916.163,VALID,0,VALID,98.5354,VALID,0.0679233,VALID,19.5283,VALID,128,VALID,0.549753,
2001-06-05, 01:45:00,VALID,916.157,VALID,0,VALID,98.5786,VALID,0.101885,VALID,19.5283,VALID,143,VALID,0.739509,
2001-06-05, 01:46:00,VALID,916.152,VALID,0,VALID,98.585,VALID,0.101885,VALID,19.5283,VALID,147,VALID,1.07492,
2001-06-05, 01:47:00,VALID,916.139,VALID,0,VALID,98.604,VALID,0.101885,VALID,19.5084,VALID,141,VALID,1.09848,
2001-06-05, 01:48:00,VALID,916.145,VALID,0,VALID,98.6091,VALID,0.101885,VALID,19.4988,VALID,136,VALID,1.24523,
2001-06-05, 01:49:00,VALID,916.148,VALID,0,VALID,98.6307,VALID,0.0849042,VALID,19.4928,VALID,138,VALID,1.18072,
2001-06-05, 01:50:00,VALID,916.144,VALID,0,VALID,98.6485,VALID,0.101885,VALID,19.4632,VALID,130,VALID,1.06691,
2001-06-05, 01:51:00,VALID,916.149,VALID,0,VALID,98.66,VALID,0.118866,VALID,19.4406,VALID,139,VALID,1.24238,
2001-06-05, 01:52:00,VALID,916.142,VALID,0,VALID,98.7096,VALID,0.101885,VALID,19.4314,VALID,137,VALID,1.40424,
2001-06-05, 01:53:00,VALID,916.128,VALID,0,VALID,98.7693,VALID,0.101885,VALID,19.4282,VALID,145,VALID,1.52703,
2001-06-05, 01:54:00,VALID,916.13,VALID,0,VALID,98.8088,VALID,0.118866,VALID,19.4314,VALID,141,VALID,1.44646,
2001-06-05, 01:55:00,VALID,916.116,VALID,0,VALID,98.8431,VALID,0.0679233,VALID,19.4418,VALID,137,VALID,1.38527,
2001-06-05, 01:56:00,VALID,916.113,VALID,0,VALID,98.8736,VALID,0,VALID,19.4403,VALID,143,VALID,1.59675,
2001-06-05, 01:57:00,VALID,916.108,VALID,0,VALID,98.899,VALID,-0.0169808,VALID,19.4331,VALID,142,VALID,0.957348,
2001-06-05, 01:58:00,VALID,916.092,VALID,0,VALID,98.9029,VALID,-0.0339617,VALID,19.4202,VALID,130,VALID,1.08861,
2001-06-05, 01:59:00,VALID,916.081,VALID,0,VALID,98.913,VALID,-0.0339617,VALID,19.4135,VALID,128,VALID,1.03214,
2001-06-05, 02:00:00,VALID,916.065,VALID,0,VALID,98.9232,VALID,0,VALID,19.3944,VALID,139,VALID,1.28626,
2001-06-05, 02:01:00,VALID,916.046,VALID,0,VALID,98.9537,VALID,-0.0169808,VALID,19.4008,VALID,129,VALID,1.06818,
2001-06-05, 02:02:00,VALID,916.048,VALID,0,VALID,98.9499,VALID,0,VALID,19.3847,VALID,122,VALID,0.751085,
2001-06-05, 02:03:00,VALID,916.018,VALID,0,VALID,98.9537,VALID,-0.0169808,VALID,19.3715,VALID,128,VALID,0.543174,
2001-06-05, 02:04:00,VALID,916.016,VALID,0,VALID,98.9741,VALID,0,VALID,19.3688,VALID,141,VALID,0.757212,
2001-06-05, 02:05:00,VALID,915.99,VALID,0,VALID,98.9842,VALID,-0.0169808,VALID,19.3554,VALID,130,VALID,0.89974,
2001-06-05, 02:06:00,VALID,915.99,VALID,0,VALID,98.9919,VALID,0,VALID,19.3489,VALID,129,VALID,0.840848,
2001-06-05, 02:07:00,VALID,915.992,VALID,0,VALID,99.0008,VALID,0,VALID,19.3392,VALID,138,VALID,0.706503,
2001-06-05, 02:08:00,VALID,915.989,VALID,0,VALID,99.0148,VALID,0,VALID,19.3392,VALID,144,VALID,1.17348,
2001-06-05, 02:09:00,VALID,915.984,VALID,0,VALID,99.0135,VALID,0,VALID,19.3598,VALID,144,VALID,0.995089,
2001-06-05, 02:10:00,VALID,915.977,VALID,0,VALID,99.0224,VALID,0,VALID,19.3489,VALID,145,VALID,1.13602,
2001-06-05, 02:11:00,VALID,915.968,VALID,0,VALID,99.0224,VALID,0.0169808,VALID,19.3457,VALID,150,VALID,0.925253,
2001-06-05, 02:12:00,VALID,915.958,VALID,0,VALID,99.0084,VALID,0,VALID,19.3365,VALID,149,VALID,1.23561,
2001-06-05, 02:13:00,VALID,915.934,VALID,0,VALID,98.9766,VALID,0,VALID,19.3367,VALID,149,VALID,1.00424,
2001-06-05, 02:14:00,VALID,915.928,VALID,0,VALID,98.9893,VALID,0,VALID,19.3203,VALID,144,VALID,0.979167,
2001-06-05, 02:15:00,VALID,915.929,VALID,0,VALID,98.9957,VALID,0,VALID,19.3134,VALID,136,VALID,0.83286,
2001-06-05, 02:16:00,VALID,915.92,VALID,0,VALID,98.983,VALID,-0.0339617,VALID,19.3037,VALID,127,VALID,0.417752,
2001-06-05, 02:17:00,VALID,915.911,VALID,0,VALID,98.9715,VALID,0,VALID,19.294,VALID,90,VALID,0.464021,
2001-06-05, 02:18:00,VALID,915.905,VALID,0,VALID,98.9639,VALID,0,VALID,19.2883,VALID,86,VALID,0.664263,
2001-06-05, 02:19:00,VALID,915.891,VALID,0,VALID,98.9207,VALID,0,VALID,19.2709,VALID,73,VALID,0.430273,
2001-06-05, 02:20:00,VALID,915.864,VALID,0,VALID,98.899,VALID,0,VALID,19.2654,VALID,83,VALID,0.466741,
2001-06-05, 02:21:00,VALID,915.828,VALID,0,VALID,98.8901,VALID,0,VALID,19.2486,VALID,97,VALID,0.497466,
2001-06-05, 02:22:00,VALID,915.812,VALID,0,VALID,98.9067,VALID,0,VALID,19.2553,VALID,97,VALID,0.407169,
2001-06-05, 02:23:00,VALID,915.794,VALID,0,VALID,98.9296,VALID,0,VALID,19.2754,VALID,98,VALID,0.449777,
2001-06-05, 02:24:00,VALID,915.765,VALID,0,VALID,98.9092,VALID,0.0169808,VALID,19.2784,VALID,98,VALID,0.263622,
2001-06-05, 02:25:00,VALID,915.757,VALID,0,VALID,98.9016,VALID,-0.0169808,VALID,19.2684,VALID,126,VALID,0.506334,
2001-06-05, 02:26:00,VALID,915.745,VALID,0,VALID,98.8736,VALID,-0.0169808,VALID,19.2784,VALID,132,VALID,0.460938,
2001-06-05, 02:27:00,VALID,915.715,VALID,0,VALID,98.8482,VALID,0,VALID,19.2649,VALID,103,VALID,0.18125,
2001-06-05, 02:28:00,VALID,915.699,VALID,0,VALID,98.7884,VALID,0,VALID,19.2493,VALID,82,VALID,0.167869,
2001-06-05, 02:29:00,VALID,915.686,VALID,0,VALID,98.7363,VALID,0,VALID,19.2327,VALID,73,VALID,0.186553,
2001-06-05, 02:30:00,VALID,915.672,VALID,0,VALID,98.6714,VALID,0,VALID,19.2071,VALID,76,VALID,0.000868056,
2001-06-05, 02:31:00,VALID,915.663,VALID,0,VALID,98.688,VALID,0,VALID,19.1971,VALID,100,VALID,0.379934,
2001-06-05, 02:32:00,VALID,915.664,VALID,0,VALID,98.7032,VALID,0,VALID,19.2202,VALID,86,VALID,0.0813301,
2001-06-05, 02:33:00,VALID,915.669,VALID,0,VALID,98.6625,VALID,-0.0339617,VALID,19.2267,VALID,85,VALID,0,
2001-06-05, 02:34:00,VALID,915.67,VALID,0,VALID,98.5735,VALID,-0.0169808,VALID,19.2267,VALID,80,VALID,0,
2001-06-05, 02:35:00,VALID,915.668,VALID,0,VALID,98.5176,VALID,0.0169808,VALID,19.2073,VALID,80,VALID,0,
2001-06-05, 02:36:00,VALID,915.654,VALID,0,VALID,98.5036,VALID,-0.0169808,VALID,19.2073,VALID,86,VALID,0,
2001-06-05, 02:37:00,VALID,915.634,VALID,0,VALID,98.5697,VALID,-0.0169808,VALID,19.2167,VALID,114,VALID,0,
2001-06-05, 02:38:00,VALID,915.621,VALID,0,VALID,98.571,VALID,0,VALID,19.2431,VALID,140,VALID,0.731571,
2001-06-05, 02:39:00,VALID,915.61,VALID,0,VALID,98.5621,VALID,0,VALID,19.2659,VALID,138,VALID,0.910051,
2001-06-05, 02:40:00,VALID,915.576,VALID,0,VALID,98.5023,VALID,0,VALID,19.2523,VALID,145,VALID,0.71875,
2001-06-05, 02:41:00,VALID,915.556,VALID,0,VALID,98.4718,VALID,0,VALID,19.2784,VALID,133,VALID,0.569866,
2001-06-05, 02:42:00,VALID,915.544,VALID,0,VALID,98.2543,VALID,0,VALID,19.2557,VALID,113,VALID,0.519631,
2001-06-05, 02:43:00,VALID,915.537,VALID,0,VALID,98.0916,VALID,0,VALID,19.1912,VALID,108,VALID,0.595644,
2001-06-05, 02:44:00,VALID,915.529,VALID,0,VALID,98.1348,VALID,-0.0169808,VALID,19.1882,VALID,96,VALID,0.645182,
2001-06-05, 02:45:00,VALID,915.522,VALID,0,VALID,98.042,VALID,0,VALID,19.1718,VALID,96,VALID,0.646587,
2001-06-05, 02:46:00,VALID,915.519,VALID,0,VALID,98.0763,VALID,0,VALID,19.1427,VALID,101,VALID,0.604367,
2001-06-05, 02:47:00,VALID,915.521,VALID,0,VALID,98.206,VALID,-0.0169808,VALID,19.1427,VALID,105,VALID,0.661133,
2001-06-05, 02:48:00,VALID,915.511,VALID,0,VALID,98.3357,VALID,0,VALID,19.1593,VALID,102,VALID,0.7625,
2001-06-05, 02:49:00,VALID,915.501,VALID,0,VALID,98.4018,VALID,0.0169808,VALID,19.1916,VALID,110,VALID,0.857686,
2001-06-05, 02:50:00,VALID,915.492,VALID,0,VALID,98.2683,VALID,0,VALID,19.1882,VALID,102,VALID,0.594439,
2001-06-05, 02:51:00,VALID,915.486,VALID,0,VALID,98.1857,VALID,0,VALID,19.1822,VALID,123,VALID,0.197321,
2001-06-05, 02:52:00,VALID,915.48,VALID,0,VALID,98.2543,VALID,0,VALID,19.1556,VALID,145,VALID,0.641426,
2001-06-05, 02:53:00,VALID,915.461,VALID,0,VALID,98.1806,VALID,-0.0339617,VALID,19.1623,VALID,103,VALID,0.497255,
2001-06-05, 02:54:00,VALID,915.457,VALID,0,VALID,98.1679,VALID,-0.0169808,VALID,19.1464,VALID,117,VALID,0.402549,
2001-06-05, 02:55:00,VALID,915.44,VALID,0,VALID,98.1208,VALID,-0.0169808,VALID,19.1337,VALID,78,VALID,0.189732,
2001-06-05, 02:56:00,VALID,915.423,VALID,0,VALID,97.9619,VALID,0,VALID,19.095,VALID,43,VALID,0.117588,
2001-06-05, 02:57:00,VALID,915.411,VALID,0,VALID,97.8996,VALID,0.0169808,VALID,19.0359,VALID,43,VALID,0.0677083,
2001-06-05, 02:58:00,VALID,915.412,VALID,0,VALID,98.0293,VALID,0,VALID,19.0431,VALID,66,VALID,0.0260417,
2001-06-05, 02:59:00,VALID,915.409,VALID,0,VALID,98.0216,VALID,0,VALID,19.0398,VALID,66,VALID,0,
2001-06-05, 03:00:00,VALID,915.409,VALID,0,VALID,97.9148,VALID,-0.0339617,VALID,19.0041,VALID,66,VALID,0,
2001-06-05, 03:01:00,VALID,915.414,VALID,0,VALID,97.663,VALID,0.0169808,VALID,18.9263,VALID,38,VALID,0,
2001-06-05, 03:02:00,VALID,915.414,VALID,0,VALID,97.3629,VALID,0.0169808,VALID,18.8426,VALID,37,VALID,0,
2001-06-05, 03:03:00,VALID,915.402,VALID,0,VALID,97.3045,VALID,0,VALID,18.7817,VALID,38,VALID,0,
2001-06-05, 03:04:00,VALID,915.393,VALID,0,VALID,97.4977,VALID,0.0169808,VALID,18.7418,VALID,49,VALID,0,
2001-06-05, 03:05:00,VALID,915.4,VALID,0,VALID,97.5562,VALID,0.0169808,VALID,18.7224,VALID,64,VALID,0,
2001-06-05, 03:06:00,VALID,915.383,VALID,0,VALID,97.8538,VALID,0.0169808,VALID,18.7067,VALID,79,VALID,0,
2001-06-05, 03:07:00,VALID,915.367,VALID,0,VALID,98.1882,VALID,0,VALID,18.7594,VALID,90,VALID,0,
2001-06-05, 03:08:00,VALID,915.37,VALID,0,VALID,98.3497,VALID,-0.0169808,VALID,18.7579,VALID,109,VALID,0,
2001-06-05, 03:09:00,VALID,915.375,VALID,0,VALID,98.4502,VALID,0,VALID,18.7783,VALID,115,VALID,0,
2001-06-05, 03:10:00,VALID,915.38,VALID,0,VALID,98.5227,VALID,-0.0339617,VALID,18.7817,VALID,113,VALID,0,
2001-06-05, 03:11:00,VALID,915.389,VALID,0,VALID,98.5443,VALID,0,VALID,18.788,VALID,108,VALID,0,
2001-06-05, 03:12:00,VALID,915.397,VALID,0,VALID,98.6524,VALID,0,VALID,18.7946,VALID,113,VALID,0.51454,
2001-06-05, 03:13:00,VALID,915.396,VALID,0,VALID,98.7236,VALID,-0.0169808,VALID,18.8113,VALID,125,VALID,0.900288,
2001-06-05, 03:14:00,VALID,915.382,VALID,0,VALID,98.8049,VALID,0,VALID,18.8302,VALID,124,VALID,0.752204,
2001-06-05, 03:15:00,VALID,915.377,VALID,0,VALID,98.8024,VALID,0,VALID,18.8431,VALID,126,VALID,0.47168,
2001-06-05, 03:16:00,VALID,915.357,VALID,0,VALID,98.7833,VALID,0,VALID,18.8498,VALID,113,VALID,0.834821,
2001-06-05, 03:17:00,VALID,915.346,VALID,0,VALID,98.8088,VALID,-0.0339617,VALID,18.8396,VALID,108,VALID,0.971073,
2001-06-05, 03:18:00,VALID,915.338,VALID,0,VALID,98.8584,VALID,0,VALID,18.8461,VALID,100,VALID,0.918428,
2001-06-05, 03:19:00,VALID,915.309,VALID,0,VALID,98.8762,VALID,0,VALID,18.8622,VALID,102,VALID,0.990625,
2001-06-05, 03:20:00,VALID,915.284,VALID,0,VALID,98.8609,VALID,0.0169808,VALID,18.8396,VALID,100,VALID,0.934896,
2001-06-05, 03:21:00,VALID,915.268,VALID,0,VALID,98.9003,VALID,0.0339617,VALID,18.8463,VALID,99,VALID,0.775549,
2001-06-05, 03:22:00,VALID,915.245,VALID,0,VALID,98.9207,VALID,-0.0169808,VALID,18.8466,VALID,104,VALID,0.879317,
2001-06-05, 03:23:00,VALID,915.236,VALID,0,VALID,98.9181,VALID,0,VALID,18.8302,VALID,112,VALID,0.948661,
2001-06-05, 03:24:00,VALID,915.233,VALID,0,VALID,98.9016,VALID,0,VALID,18.8237,VALID,123,VALID,0.740385,
2001-06-05, 03:25:00,VALID,915.236,VALID,0,VALID,98.8456,VALID,0,VALID,18.7787,VALID,125,VALID,0.499763,
2001-06-05, 03:26:00,VALID,915.253,VALID,0,VALID,98.824,VALID,0,VALID,18.7497,VALID,121,VALID,0.311849,
2001-06-05, 03:27:00,VALID,915.245,VALID,0,VALID,98.8609,VALID,-0.0339617,VALID,18.7141,VALID,120,VALID,0.725946,
2001-06-05, 03:28:00,VALID,915.249,VALID,0,VALID,98.9232,VALID,0,VALID,18.7137,VALID,121,VALID,0.636018,
2001-06-05, 03:29:00,VALID,915.252,VALID,0,VALID,98.983,VALID,0,VALID,18.74,VALID,126,VALID,0.955078,
2001-06-05, 03:30:00,VALID,915.241,VALID,0,VALID,99.0071,VALID,-0.0169808,VALID,18.7626,VALID,133,VALID,0.73192,
2001-06-05, 03:31:00,VALID,915.22,VALID,0,VALID,99.0211,VALID,0,VALID,18.769,VALID,142,VALID,0.893581,
2001-06-05, 03:32:00,VALID,915.222,VALID,0,VALID,99.0364,VALID,-0.0339617,VALID,18.7653,VALID,142,VALID,1.18842,
2001-06-05, 03:33:00,VALID,915.212,VALID,0,VALID,99.0567,VALID,-0.0339617,VALID,18.7951,VALID,140,VALID,0.928571,
2001-06-05, 03:34:00,VALID,915.198,VALID,0,VALID,99.0478,VALID,-0.0679233,VALID,18.7824,VALID,128,VALID,0.757612,
2001-06-05, 03:35:00,VALID,915.205,VALID,0,VALID,99.0249,VALID,-0.0169808,VALID,18.7492,VALID,116,VALID,0.540118,
2001-06-05, 03:36:00,VALID,915.217,VALID,0,VALID,99.0555,VALID,-0.0339617,VALID,18.7529,VALID,106,VALID,0.703947,
2001-06-05, 03:37:00,VALID,915.219,VALID,0,VALID,99.058,VALID,0,VALID,18.7472,VALID,110,VALID,0.846429,
2001-06-05, 03:38:00,VALID,915.234,VALID,0,VALID,99.0974,VALID,-0.0169808,VALID,18.7536,VALID,111,VALID,0.990785,
2001-06-05, 03:39:00,VALID,915.244,VALID,0,VALID,99.0911,VALID,-0.0509425,VALID,18.7531,VALID,118,VALID,0.790246,
2001-06-05, 03:40:00,VALID,915.252,VALID,0,VALID,99.1101,VALID,0.0169808,VALID,18.743,VALID,130,VALID,0.873698,
2001-06-05, 03:41:00,VALID,915.256,VALID,0,VALID,99.1343,VALID,-0.0169808,VALID,18.7494,VALID,133,VALID,0.887541,